Regional Weather Roundup
Issued by NWS

Home | Current Version | Previous Version | Text Only | Print | Product List | Glossary On
Versions: 1 2 3 4 5 6 7 8 9 10 11 12 13 14 15 16 17 18 19 20 21 22 23 24 25 26 27 28 29 30 31 32 33 34 35 36 37 38 39 40 41 42 43 44 45 46 47 48
000
ASUS42 KFFC 060603
RWRGA
WEATHER ROUNDUP FOR GEORGIA
NATIONAL WEATHER SERVICE PEACHTREE CITY GA
100 AM EST FRI MAR 06 2015

NOTE: "FAIR" INDICATES FEW OR NO CLOUDS BELOW 12,000 FEET WITH NO
SIGNIFICANT WEATHER AND/OR OBSTRUCTIONS TO VISIBILITY.

* = USE WITH CAUTION. THE STATIONS MARKED WITH AN ASTERISK MAY NOT
REPORT WEATHER SUCH AS PRECIPITATION, FOG, OR THUNDER AND ARE NOT
QUALITY CONTROLLED BY NWS.

THE REMARK "TC" DENOTES TEMPERATURE READING IN DEGREES CELSIUS.

GAZ001>058-060700-
NORTH GEORGIA

CITY           SKY/WX    TMP DP  RH WIND       PRES   REMARKS
ATLANTA        MOCLDY    29  22  75 N13G20    30.30R WCI  19
6HR MIN TEMP:  29; 6HR MAX TEMP:  35;

ATHENS         CLOUDY    39  33  79 VRB6      30.27R WCI  35
6HR MIN TEMP:  39; 6HR MAX TEMP:  42;

CHAMBLEE       CLOUDY    28  22  78 NW9       30.31S WCI  19
6HR MIN TEMP:  28; 6HR MAX TEMP:  33;

PEACHTREE CITY PTCLDY    29  22  75 N13       30.32S WCI  19
6HR MIN TEMP:  29; 6HR MAX TEMP:  37;

ROME           MOCLDY    26  19  74 N13       30.41R WCI  15
6HR MIN TEMP:  26; 6HR MAX TEMP:  32;

WEST ATLANTA   FAIR      28  21  75 NW9       30.32F WCI  19
6HR MIN TEMP:  28; 6HR MAX TEMP:  34;

GAINESVILLE    CLOUDY    33  25  72 NW8       30.28R WCI  26
6HR MIN TEMP:  32; 6HR MAX TEMP:  37;

CARTERSVILLE   PTCLDY    26  19  74 VRB5      30.38F WCI  20
6HR MIN TEMP:  26; 6HR MAX TEMP:  32;



CITY           SKY/WX    TMP DP  RH WIND       PRES   REMARKS
DALTON*        CLOUDY    27  21  80 N16       30.41S WCI  14
MARIETTA       PTCLDY    26  22  84 NW10G18   30.31F WCI  16
$$

GAZ059>098-102>109-060700-
CENTRAL GEORGIA

CITY           SKY/WX    TMP DP  RH WIND       PRES   REMARKS
AUGUSTA-BUSH   CLOUDY    43  37  79 E15       30.28R
6HR MIN TEMP:  43; 6HR MAX TEMP:  60; 6HR PCP: TRACE;

AUGUSTA-DANIEL CLOUDY    44  37  76 NE16G24   30.28R
6HR MIN TEMP:  44; 6HR MAX TEMP:  60; 6HR PCP:  0.02;

COLUMBUS       MOCLDY    34  25  69 N8        30.32F WCI  27
6HR MIN TEMP:  34; 6HR MAX TEMP:  40; 6HR PCP: TRACE;

MACON          CLOUDY    37  29  72 NW10      30.30R WCI  30
6HR MIN TEMP:  37; 6HR MAX TEMP:  47;

ROBINS AFB     CLOUDY    39  30  69 N15       30.29S WCI  31


CITY           SKY/WX    TMP DP  RH WIND       PRES   REMARKS
LAGRANGE*      MOCLDY    33  27  77 N8        30.33F WCI  26
SYLVANIA*      CLOUDY    46  46  99 NE9       30.24R FOG
MILLEDGEVILLE* CLOUDY    41  34  75 NW6       30.29R
$$

GAZ099>101-110>166-060700-
SOUTH GEORGIA

CITY           SKY/WX    TMP DP  RH WIND       PRES   REMARKS
SAVANNAH       CLOUDY    51  47  86 N13       30.21R
6HR MIN TEMP:  51; 6HR MAX TEMP:  64; 6HR PCP:  0.09;

VALDOSTA       MOCLDY    49  45  86 N7        30.22S
6HR MIN TEMP:  49; 6HR MAX TEMP:  63; 6HR PCP: TRACE;

ALMA           CLEAR     47  40  76 NW8       30.23R
6HR MIN TEMP:  47; 6HR MAX TEMP:  63; 6HR PCP:  0.01;

ST SIMONS      CLOUDY    58  53  84 NW12G17   30.18R
6HR MIN TEMP:  58; 6HR MAX TEMP:  72; 6HR PCP:  0.06;

FT STEWART     CLOUDY    51  46  82 NW7       30.19S
ALBANY         CLEAR     41  33  73 N9        30.29F
HUNTER AFB     LGT RAIN  54  51  92 NE13G22   30.18R
MOODY AFB      PTCLDY    48  44  84 NW9       30.21F
BRUNSWICK      MOCLDY    55  50  82 NW10G17   30.20R


CITY           SKY/WX    TMP DP  RH WIND       PRES   REMARKS
BAINBRIDGE*    CLEAR     43  37  81 N9        30.30R
MOULTRIE*      CLEAR     45  41  87 NW7       30.26S
VIDALIA*       CLOUDY    45  41  87 NW7       30.24S
WAYCROSS*      CLEAR     52  46  80 N10       30.22S
DOUGLAS*       PTCLDY    48  43  81 N10       30.25R
$$


USA.gov is the U.S. government's official web portal to all federal, state and local government web resources and services.